Location: Unspecified
(49.2170°N, 0.0000°E)
Time: 12:59:27
(UTC+00:00)

Transit 2A - Pass Details

Date: 23 June 2019
Orbit: 596 x 962 km, 66.7° (Epoch: 16 August)

Event Time Altitude Azimuth Distance (km) Brightness Sun altitude
Rises 01:33:29 0° 240° (WSW) 3,637 - -14.5°
Exits shadow 01:35:55 - 246° (WSW) 2,793 8.5 -14.4°
Reaches altitude 10° 01:36:12 10° 247° (WSW) 2,697 8.4 -14.4°
Maximum altitude 01:42:13 42° 318° (NW) 1,325 7.4 -14.0°
Drops below altitude 10° 01:48:02 10° 28° (NNE) 2,610 10.2 -13.6°
Sets 01:50:39 0° 36° (NE) 3,509 11.2 -13.4°
